Location: Unspecified
(0.0000°N, 0.0000°E)
Time: 21:01:36
(UTC+00:00)

SRMSAT - Pass Details

Date: 20 July 2019
Orbit: 848 x 866 km, 20.0° (Epoch: 19 August)

Event Time Altitude Azimuth Distance (km) Brightness Sun altitude
Exits shadow 05:01:23 - 297° (WNW) 2,564 ? -15.2°
Reaches altitude 10° 05:01:41 10° 297° (WNW) 2,458 ? -15.1°
Maximum altitude 05:07:34 72° 21° (NNE) 884 ? -13.7°
Drops below altitude 10° 05:13:28 10° 105° (ESE) 2,459 ? -12.4°
Sets 05:16:02 0° 107° (ESE) 3,396 ? -11.8°
